Year,Month,Day,Hour,Minute,Value (Times are PST for temperature in C)
2007,05,18,00,00,9.90
2007,05,18,00,01,9.80
2007,05,18,00,02,9.80
2007,05,18,00,03,9.80
2007,05,18,00,04,9.80
2007,05,18,00,05,9.80
2007,05,18,00,06,9.80
2007,05,18,00,07,9.80
2007,05,18,00,08,9.80
2007,05,18,00,09,9.80
2007,05,18,00,10,9.80
2007,05,18,00,11,9.80
2007,05,18,00,12,9.80
2007,05,18,00,13,9.80
2007,05,18,00,14,9.80
2007,05,18,00,15,9.70
2007,05,18,00,16,9.70
2007,05,18,00,17,9.70
2007,05,18,00,18,9.70
2007,05,18,00,19,9.60
2007,05,18,00,20,9.60
2007,05,18,00,21,9.60
2007,05,18,00,22,9.60
2007,05,18,00,23,9.50
2007,05,18,00,24,9.50
2007,05,18,00,25,9.50
2007,05,18,00,26,9.40
2007,05,18,00,27,9.40
2007,05,18,00,28,9.40
2007,05,18,00,29,9.40
2007,05,18,00,30,9.40
2007,05,18,00,31,9.40
2007,05,18,00,32,9.40
2007,05,18,00,33,9.30
2007,05,18,00,34,9.30
2007,05,18,00,35,9.30
2007,05,18,00,36,9.30
2007,05,18,00,37,9.30
2007,05,18,00,38,9.30
2007,05,18,00,39,9.30
2007,05,18,00,40,9.20
2007,05,18,00,41,9.20
2007,05,18,00,42,9.20
2007,05,18,00,43,9.20
2007,05,18,00,44,9.20
2007,05,18,00,45,9.20
2007,05,18,00,46,9.20
2007,05,18,00,47,9.20
2007,05,18,00,48,9.20
2007,05,18,00,49,9.20
2007,05,18,00,50,9.20
2007,05,18,00,51,9.10
2007,05,18,00,52,9.10
2007,05,18,00,53,9.00
2007,05,18,00,54,8.90
2007,05,18,00,55,8.90
2007,05,18,00,56,8.80
2007,05,18,00,57,8.80
2007,05,18,00,58,8.80
2007,05,18,00,59,8.80
2007,05,18,01,00,8.70
2007,05,18,01,01,8.70
2007,05,18,01,02,8.60
2007,05,18,01,03,8.60
2007,05,18,01,04,8.60
2007,05,18,01,05,8.50
2007,05,18,01,06,8.50
2007,05,18,01,07,8.40
2007,05,18,01,08,8.40
2007,05,18,01,09,8.40
2007,05,18,01,10,8.30
2007,05,18,01,11,8.30
2007,05,18,01,12,8.30
2007,05,18,01,13,8.30
2007,05,18,01,14,8.20
2007,05,18,01,15,8.20
2007,05,18,01,16,8.20
2007,05,18,01,17,8.10
2007,05,18,01,18,8.10
2007,05,18,01,19,8.10
2007,05,18,01,20,8.00
2007,05,18,01,21,8.00
2007,05,18,01,22,7.90
2007,05,18,01,23,7.90
2007,05,18,01,24,7.90
2007,05,18,01,25,7.90
2007,05,18,01,26,7.90
2007,05,18,01,27,7.80
2007,05,18,01,28,7.80
2007,05,18,01,29,7.80
2007,05,18,01,30,7.80
2007,05,18,01,31,7.80
2007,05,18,01,32,7.80
2007,05,18,01,33,7.80
2007,05,18,01,34,7.70
2007,05,18,01,35,7.70
2007,05,18,01,36,7.70
2007,05,18,01,37,7.70
2007,05,18,01,38,7.70
2007,05,18,01,39,7.70
2007,05,18,01,40,7.70
2007,05,18,01,41,7.70
2007,05,18,01,42,7.70
2007,05,18,01,43,7.60
2007,05,18,01,44,7.60
2007,05,18,01,45,7.60
2007,05,18,01,46,7.60
2007,05,18,01,47,7.60
2007,05,18,01,48,7.60
2007,05,18,01,49,7.60
2007,05,18,01,50,7.60
2007,05,18,01,51,7.60
2007,05,18,01,52,7.60
2007,05,18,01,53,7.60
2007,05,18,01,54,7.60
2007,05,18,01,55,7.60
2007,05,18,01,56,7.50
2007,05,18,01,57,7.50
2007,05,18,01,58,7.50
2007,05,18,01,59,7.40
2007,05,18,02,00,7.40
2007,05,18,02,01,7.40
2007,05,18,02,02,7.40
2007,05,18,02,03,7.40
2007,05,18,02,04,7.40
2007,05,18,02,05,7.40
2007,05,18,02,06,7.30
2007,05,18,02,07,7.30
2007,05,18,02,08,7.30
2007,05,18,02,09,7.30
2007,05,18,02,10,7.30
2007,05,18,02,11,7.30
2007,05,18,02,12,7.30
2007,05,18,02,13,7.30
2007,05,18,02,14,7.30
2007,05,18,02,15,7.30
2007,05,18,02,16,7.20
2007,05,18,02,17,7.20
2007,05,18,02,18,7.20
2007,05,18,02,19,7.20
2007,05,18,02,20,7.20
2007,05,18,02,21,7.20
2007,05,18,02,22,7.20
2007,05,18,02,23,7.20
2007,05,18,02,24,7.10
2007,05,18,02,25,7.10
2007,05,18,02,26,7.10
2007,05,18,02,27,7.00
2007,05,18,02,28,7.00
2007,05,18,02,29,7.00
2007,05,18,02,30,6.90
2007,05,18,02,31,6.90
2007,05,18,02,32,6.90
2007,05,18,02,33,6.80
2007,05,18,02,34,6.80
2007,05,18,02,35,6.80
2007,05,18,02,36,6.80
2007,05,18,02,37,6.80
2007,05,18,02,38,6.90
2007,05,18,02,39,6.90
2007,05,18,02,40,6.90
2007,05,18,02,41,6.90
2007,05,18,02,42,6.90
2007,05,18,02,43,6.80
2007,05,18,02,44,6.80
2007,05,18,02,45,6.80
2007,05,18,02,46,6.80
2007,05,18,02,47,6.80
2007,05,18,02,48,6.70
2007,05,18,02,49,6.70
2007,05,18,02,50,6.70
2007,05,18,02,51,6.70
2007,05,18,02,52,6.70
2007,05,18,02,53,6.70
2007,05,18,02,54,6.70
2007,05,18,02,55,6.70
2007,05,18,02,56,6.70
2007,05,18,02,57,6.70
2007,05,18,02,58,6.70
2007,05,18,02,59,6.60
2007,05,18,03,00,6.60
2007,05,18,03,01,6.60
2007,05,18,03,02,6.60
2007,05,18,03,03,6.50
2007,05,18,03,04,6.50
2007,05,18,03,05,6.50
2007,05,18,03,06,6.50
2007,05,18,03,07,6.40
2007,05,18,03,08,6.50
2007,05,18,03,09,6.50
2007,05,18,03,10,6.40
2007,05,18,03,11,6.40
2007,05,18,03,12,6.40
2007,05,18,03,13,6.40
2007,05,18,03,14,6.40
2007,05,18,03,15,6.40
2007,05,18,03,16,6.40
2007,05,18,03,17,6.40
2007,05,18,03,18,6.40
2007,05,18,03,19,6.30
2007,05,18,03,20,6.30
2007,05,18,03,21,6.30
2007,05,18,03,22,6.30
2007,05,18,03,23,6.30
2007,05,18,03,24,6.30
2007,05,18,03,25,6.30
2007,05,18,03,26,6.30
2007,05,18,03,27,6.20
2007,05,18,03,28,6.20
2007,05,18,03,29,6.20
2007,05,18,03,30,6.20
2007,05,18,03,31,6.20
2007,05,18,03,32,6.20
2007,05,18,03,33,6.20
2007,05,18,03,34,6.20
2007,05,18,03,35,6.20
2007,05,18,03,36,6.20
2007,05,18,03,37,6.20
2007,05,18,03,38,6.10
2007,05,18,03,39,6.10
2007,05,18,03,40,6.10
2007,05,18,03,41,6.10
2007,05,18,03,42,6.10
2007,05,18,03,43,6.10
2007,05,18,03,44,6.10
2007,05,18,03,45,6.00
2007,05,18,03,46,6.00
2007,05,18,03,47,6.00
2007,05,18,03,48,5.90
2007,05,18,03,49,5.90
2007,05,18,03,50,5.90
2007,05,18,03,51,5.90
2007,05,18,03,52,5.90
2007,05,18,03,53,5.90
2007,05,18,03,54,5.90
2007,05,18,03,55,5.80
2007,05,18,03,56,5.80
2007,05,18,03,57,5.80
2007,05,18,03,58,5.80
2007,05,18,03,59,5.80
2007,05,18,04,00,5.80
2007,05,18,04,01,5.80
2007,05,18,04,02,5.80
2007,05,18,04,03,5.80
2007,05,18,04,04,5.80
2007,05,18,04,05,5.80
2007,05,18,04,06,5.80
2007,05,18,04,07,5.80
2007,05,18,04,08,5.80
2007,05,18,04,09,5.80
2007,05,18,04,10,5.80
2007,05,18,04,11,5.70
2007,05,18,04,12,5.70
2007,05,18,04,13,5.70
2007,05,18,04,14,5.70
2007,05,18,04,15,5.70
2007,05,18,04,16,5.70
2007,05,18,04,17,5.60
2007,05,18,04,18,5.60
2007,05,18,04,19,5.60
2007,05,18,04,20,5.60
2007,05,18,04,21,5.60
2007,05,18,04,22,5.60
2007,05,18,04,23,5.60
2007,05,18,04,24,5.60
2007,05,18,04,25,5.60
2007,05,18,04,26,5.60
2007,05,18,04,27,5.60
2007,05,18,04,28,5.60
2007,05,18,04,29,5.60
2007,05,18,04,30,5.50
2007,05,18,04,31,5.50
2007,05,18,04,32,5.50
2007,05,18,04,33,5.40
2007,05,18,04,34,5.40
2007,05,18,04,35,5.40
2007,05,18,04,36,5.40
2007,05,18,04,37,5.40
2007,05,18,04,38,5.40
2007,05,18,04,39,5.40
2007,05,18,04,40,5.40
2007,05,18,04,41,5.30
2007,05,18,04,42,5.30
2007,05,18,04,43,5.30
2007,05,18,04,44,5.30
2007,05,18,04,45,5.30
2007,05,18,04,46,5.30
2007,05,18,04,47,5.30
2007,05,18,04,48,5.20
2007,05,18,04,49,5.20
2007,05,18,04,50,5.20
2007,05,18,04,51,5.20
2007,05,18,04,52,5.30
2007,05,18,04,53,5.30
2007,05,18,04,54,5.30
2007,05,18,04,55,5.40
2007,05,18,04,56,5.40
2007,05,18,04,57,5.40
2007,05,18,04,58,5.40
2007,05,18,04,59,5.40
2007,05,18,05,00,5.40
2007,05,18,05,01,5.40
2007,05,18,05,02,5.40
2007,05,18,05,03,5.50
2007,05,18,05,04,5.50
2007,05,18,05,05,5.50
2007,05,18,05,06,5.50
2007,05,18,05,07,5.50
2007,05,18,05,08,5.50
2007,05,18,05,09,5.40
2007,05,18,05,10,5.40
2007,05,18,05,11,5.40
2007,05,18,05,12,5.40
2007,05,18,05,13,5.40
2007,05,18,05,14,5.40
2007,05,18,05,15,5.30
2007,05,18,05,16,5.30
2007,05,18,05,17,5.30
2007,05,18,05,18,5.30
2007,05,18,05,19,5.30
2007,05,18,05,20,5.30
2007,05,18,05,21,5.20
2007,05,18,05,22,5.20
2007,05,18,05,23,5.20
2007,05,18,05,24,5.10
2007,05,18,05,25,5.10
2007,05,18,05,26,5.10
2007,05,18,05,27,5.00
2007,05,18,05,28,5.00
2007,05,18,05,29,5.00
2007,05,18,05,30,4.90
2007,05,18,05,31,4.90
2007,05,18,05,32,4.90
2007,05,18,05,33,4.80
2007,05,18,05,34,4.80
2007,05,18,05,35,4.80
2007,05,18,05,36,4.80
2007,05,18,05,37,4.80
2007,05,18,05,38,4.80
2007,05,18,05,39,4.80
2007,05,18,05,40,4.80
2007,05,18,05,41,4.90
2007,05,18,05,42,4.90
2007,05,18,05,43,4.90
2007,05,18,05,44,4.90
2007,05,18,05,45,5.00
2007,05,18,05,46,5.00
2007,05,18,05,47,5.00
2007,05,18,05,48,5.00
2007,05,18,05,49,5.10
2007,05,18,05,50,5.10
2007,05,18,05,51,5.10
2007,05,18,05,52,5.10
2007,05,18,05,53,5.10
2007,05,18,05,54,5.10
2007,05,18,05,55,5.10
2007,05,18,05,56,5.10
2007,05,18,05,57,5.00
2007,05,18,05,58,5.00
2007,05,18,05,59,5.00
2007,05,18,06,00,5.00
2007,05,18,06,01,5.00
2007,05,18,06,02,5.00
2007,05,18,06,03,5.00
2007,05,18,06,04,5.00
2007,05,18,06,05,5.00
2007,05,18,06,06,5.00
2007,05,18,06,07,5.00
2007,05,18,06,08,5.10
2007,05,18,06,09,5.10
2007,05,18,06,10,5.10
2007,05,18,06,11,5.10
2007,05,18,06,12,5.10
2007,05,18,06,13,5.10
2007,05,18,06,14,5.20
2007,05,18,06,15,5.20
2007,05,18,06,16,5.20
2007,05,18,06,17,5.20
2007,05,18,06,18,5.20
2007,05,18,06,19,5.30
2007,05,18,06,20,5.30
2007,05,18,06,21,5.30
2007,05,18,06,22,5.30
2007,05,18,06,23,5.30
2007,05,18,06,24,5.40
2007,05,18,06,25,5.40
2007,05,18,06,26,5.40
2007,05,18,06,27,5.40
2007,05,18,06,28,5.40
2007,05,18,06,29,5.50
2007,05,18,06,30,5.50
2007,05,18,06,31,5.50
2007,05,18,06,32,5.50
2007,05,18,06,33,5.50
2007,05,18,06,34,5.60
2007,05,18,06,35,5.60
2007,05,18,06,36,5.60
2007,05,18,06,37,5.60
2007,05,18,06,38,5.70
2007,05,18,06,39,5.70
2007,05,18,06,40,5.70
2007,05,18,06,41,5.80
2007,05,18,06,42,5.80
2007,05,18,06,43,5.90
2007,05,18,06,44,5.90
2007,05,18,06,45,6.00
2007,05,18,06,46,6.00
2007,05,18,06,47,6.10
2007,05,18,06,48,6.20
2007,05,18,06,49,6.20
2007,05,18,06,50,6.30
2007,05,18,06,51,6.40
2007,05,18,06,52,6.50
2007,05,18,06,53,6.60
2007,05,18,06,54,6.70
2007,05,18,06,55,6.80
2007,05,18,06,56,6.90
2007,05,18,06,57,7.00
2007,05,18,06,58,7.00
2007,05,18,06,59,7.10
2007,05,18,07,00,7.20
2007,05,18,07,01,7.20
2007,05,18,07,02,7.20
2007,05,18,07,03,7.20
2007,05,18,07,04,7.30
2007,05,18,07,05,7.30
2007,05,18,07,06,7.40
2007,05,18,07,07,7.40
2007,05,18,07,08,7.50
2007,05,18,07,09,7.50
2007,05,18,07,10,7.60
2007,05,18,07,11,7.80
2007,05,18,07,12,7.80
2007,05,18,07,13,8.00
2007,05,18,07,14,8.10
2007,05,18,07,15,8.30
2007,05,18,07,16,8.50
2007,05,18,07,17,8.70
2007,05,18,07,18,8.90
2007,05,18,07,19,9.00
2007,05,18,07,20,9.10
2007,05,18,07,21,9.30
2007,05,18,07,22,9.40
2007,05,18,07,23,9.50
2007,05,18,07,24,9.60
2007,05,18,07,25,9.60
2007,05,18,07,26,9.70
2007,05,18,07,27,9.70
2007,05,18,07,28,9.80
2007,05,18,07,29,9.80
2007,05,18,07,30,9.90
2007,05,18,07,31,9.90
2007,05,18,07,32,10.00
2007,05,18,07,33,10.00
2007,05,18,07,34,10.10
2007,05,18,07,35,10.20
2007,05,18,07,36,10.20
2007,05,18,07,37,10.30
2007,05,18,07,38,10.30
2007,05,18,07,39,10.30
2007,05,18,07,40,10.40
2007,05,18,07,41,10.40
2007,05,18,07,42,10.50
2007,05,18,07,43,10.60
2007,05,18,07,44,10.60
2007,05,18,07,45,10.70
2007,05,18,07,46,10.70
2007,05,18,07,47,10.80
2007,05,18,07,48,10.80
2007,05,18,07,49,10.90
2007,05,18,07,50,11.00
2007,05,18,07,51,11.00
2007,05,18,07,52,11.00
2007,05,18,07,53,11.00
2007,05,18,07,54,11.00
2007,05,18,07,55,11.00
2007,05,18,07,56,11.00
2007,05,18,07,57,11.00
2007,05,18,07,58,11.00
2007,05,18,07,59,11.00
2007,05,18,08,00,10.90
2007,05,18,08,01,10.90
2007,05,18,08,02,10.90
2007,05,18,08,03,11.00
2007,05,18,08,04,11.00
2007,05,18,08,05,11.00
2007,05,18,08,06,11.10
2007,05,18,08,07,11.10
2007,05,18,08,08,11.10
2007,05,18,08,09,11.20
2007,05,18,08,10,11.20
2007,05,18,08,11,11.20
2007,05,18,08,12,11.30
2007,05,18,08,13,11.30
2007,05,18,08,14,11.30
2007,05,18,08,15,11.30
2007,05,18,08,16,11.30
2007,05,18,08,17,11.30
2007,05,18,08,18,11.30
2007,05,18,08,19,11.30
2007,05,18,08,20,11.40
2007,05,18,08,21,11.30
2007,05,18,08,22,11.30
2007,05,18,08,23,11.40
2007,05,18,08,24,11.40
2007,05,18,08,25,11.40
2007,05,18,08,26,11.50
2007,05,18,08,27,11.50
2007,05,18,08,28,11.60
2007,05,18,08,29,11.60
2007,05,18,08,30,11.60
2007,05,18,08,31,11.70
2007,05,18,08,32,11.70
2007,05,18,08,33,11.60
2007,05,18,08,34,11.70
2007,05,18,08,35,11.70
2007,05,18,08,36,11.70
2007,05,18,08,37,11.80
2007,05,18,08,38,11.90
2007,05,18,08,39,11.90
2007,05,18,08,40,11.90
2007,05,18,08,41,11.80
2007,05,18,08,42,11.80
2007,05,18,08,43,11.80
2007,05,18,08,44,11.80
2007,05,18,08,45,11.80
2007,05,18,08,46,11.80
2007,05,18,08,47,11.80
2007,05,18,08,48,11.90
2007,05,18,08,49,11.90
2007,05,18,08,50,11.90
2007,05,18,08,51,11.90
2007,05,18,08,52,11.90
2007,05,18,08,53,11.90
2007,05,18,08,54,12.00
2007,05,18,08,55,12.10
2007,05,18,08,56,12.10
2007,05,18,08,57,12.10
2007,05,18,08,58,12.10
2007,05,18,08,59,12.00
2007,05,18,09,00,12.00
2007,05,18,09,01,12.00
2007,05,18,09,02,12.10
2007,05,18,09,03,12.10
2007,05,18,09,04,12.20
2007,05,18,09,05,12.20
2007,05,18,09,06,12.20
2007,05,18,09,07,12.20
2007,05,18,09,08,12.20
2007,05,18,09,09,12.30
2007,05,18,09,10,12.30
2007,05,18,09,11,12.20
2007,05,18,09,12,12.20
2007,05,18,09,13,12.20
2007,05,18,09,14,12.10
2007,05,18,09,15,12.10
2007,05,18,09,16,12.10
2007,05,18,09,17,12.10
2007,05,18,09,18,12.10
2007,05,18,09,19,12.00
2007,05,18,09,20,11.90
2007,05,18,09,21,11.90
2007,05,18,09,22,11.80
2007,05,18,09,23,11.80
2007,05,18,09,24,11.60
2007,05,18,09,25,11.60
2007,05,18,09,26,11.60
2007,05,18,09,27,11.70
2007,05,18,09,28,11.80
2007,05,18,09,29,11.80
2007,05,18,09,30,11.80
2007,05,18,09,31,11.80
2007,05,18,09,32,11.80
2007,05,18,09,33,11.90
2007,05,18,09,34,11.90
2007,05,18,09,35,11.90
2007,05,18,09,36,11.90
2007,05,18,09,37,11.90
2007,05,18,09,38,11.90
2007,05,18,09,39,11.90
2007,05,18,09,40,12.00
2007,05,18,09,41,12.00
2007,05,18,09,42,12.10
2007,05,18,09,43,12.20
2007,05,18,09,44,12.20
2007,05,18,09,45,12.20
2007,05,18,09,46,12.10
2007,05,18,09,47,12.10
2007,05,18,09,48,12.20
2007,05,18,09,49,12.20
2007,05,18,09,50,12.30
2007,05,18,09,51,12.30
2007,05,18,09,52,12.30
2007,05,18,09,53,12.30
2007,05,18,09,54,12.30
2007,05,18,09,55,12.20
2007,05,18,09,56,12.20
2007,05,18,09,57,12.10
2007,05,18,09,58,12.10
2007,05,18,09,59,12.10
2007,05,18,10,00,12.10
2007,05,18,10,01,12.10
2007,05,18,10,02,12.10
2007,05,18,10,03,12.20
2007,05,18,10,04,12.10
2007,05,18,10,05,12.10
2007,05,18,10,06,12.10
2007,05,18,10,07,12.10
2007,05,18,10,08,12.10
2007,05,18,10,09,12.10
2007,05,18,10,10,12.10
2007,05,18,10,11,12.20
2007,05,18,10,12,12.40
2007,05,18,10,13,12.40
2007,05,18,10,14,12.40
2007,05,18,10,15,12.40
2007,05,18,10,16,12.40
2007,05,18,10,17,12.40
2007,05,18,10,18,12.40
2007,05,18,10,19,12.40
2007,05,18,10,20,12.50
2007,05,18,10,21,12.50
2007,05,18,10,22,12.60
2007,05,18,10,23,12.70
2007,05,18,10,24,12.70
2007,05,18,10,25,12.70
2007,05,18,10,26,12.80
2007,05,18,10,27,12.80
2007,05,18,10,28,12.90
2007,05,18,10,29,12.90
2007,05,18,10,30,12.90
2007,05,18,10,31,12.90
2007,05,18,10,32,12.80
2007,05,18,10,33,12.80
2007,05,18,10,34,12.80
2007,05,18,10,35,12.80
2007,05,18,10,36,12.70
2007,05,18,10,37,12.70
2007,05,18,10,38,12.80
2007,05,18,10,39,12.80
2007,05,18,10,40,12.80
2007,05,18,10,41,12.90
2007,05,18,10,42,12.80
2007,05,18,10,43,12.80
2007,05,18,10,44,12.90
2007,05,18,10,45,12.90
2007,05,18,10,46,13.00
2007,05,18,10,47,13.10
2007,05,18,10,48,13.10
2007,05,18,10,49,13.20
2007,05,18,10,50,13.30
2007,05,18,10,51,13.40
2007,05,18,10,52,13.40
2007,05,18,10,53,13.30
2007,05,18,10,54,13.20
2007,05,18,10,55,13.00
2007,05,18,10,56,12.90
2007,05,18,10,57,13.00
2007,05,18,10,58,13.10
2007,05,18,10,59,13.10
2007,05,18,11,00,13.10
2007,05,18,11,01,13.20
2007,05,18,11,02,13.30
2007,05,18,11,03,13.30
2007,05,18,11,04,13.30
2007,05,18,11,05,13.40
2007,05,18,11,06,13.60
2007,05,18,11,07,13.70
2007,05,18,11,08,13.70
2007,05,18,11,09,13.70
2007,05,18,11,10,13.50
2007,05,18,11,11,13.50
2007,05,18,11,12,13.60
2007,05,18,11,13,13.60
2007,05,18,11,14,13.50
2007,05,18,11,15,13.40
2007,05,18,11,16,13.40
2007,05,18,11,17,13.50
2007,05,18,11,18,13.50
2007,05,18,11,19,13.60
2007,05,18,11,20,13.70
2007,05,18,11,21,13.80
2007,05,18,11,22,13.80
2007,05,18,11,23,13.90
2007,05,18,11,24,13.90
2007,05,18,11,25,13.90
2007,05,18,11,26,14.00
2007,05,18,11,27,14.10
2007,05,18,11,28,14.10
2007,05,18,11,29,14.10
2007,05,18,11,30,14.20
2007,05,18,11,31,14.20
2007,05,18,11,32,14.20
2007,05,18,11,33,14.30
2007,05,18,11,34,14.40
2007,05,18,11,35,14.50
2007,05,18,11,36,14.70
2007,05,18,11,37,14.90
2007,05,18,11,38,15.00
2007,05,18,11,39,15.00
2007,05,18,11,40,15.00
2007,05,18,11,41,15.10
2007,05,18,11,42,15.00
2007,05,18,11,43,15.00
2007,05,18,11,44,15.00
2007,05,18,11,45,15.00
2007,05,18,11,46,14.90
2007,05,18,11,47,14.90
2007,05,18,11,48,15.00
2007,05,18,11,49,15.00
2007,05,18,11,50,15.00
2007,05,18,11,51,15.00
2007,05,18,11,52,15.00
2007,05,18,11,53,15.10
2007,05,18,11,54,15.10
2007,05,18,11,55,15.00
2007,05,18,11,56,15.00
2007,05,18,11,57,15.00
2007,05,18,11,58,15.00
2007,05,18,11,59,15.00
2007,05,18,12,00,14.90
2007,05,18,12,01,14.70
2007,05,18,12,02,14.70
2007,05,18,12,03,14.60
2007,05,18,12,04,14.70
2007,05,18,12,05,14.70
2007,05,18,12,06,14.70
2007,05,18,12,07,14.70
2007,05,18,12,08,14.70
2007,05,18,12,09,14.70
2007,05,18,12,10,14.70
2007,05,18,12,11,14.80
2007,05,18,12,12,14.70
2007,05,18,12,13,14.70
2007,05,18,12,14,14.70
2007,05,18,12,15,14.70
2007,05,18,12,16,14.70
2007,05,18,12,17,14.70
2007,05,18,12,18,14.80
2007,05,18,12,19,14.70
2007,05,18,12,20,14.70
2007,05,18,12,21,14.80
2007,05,18,12,22,14.90
2007,05,18,12,23,15.00
2007,05,18,12,24,15.00
2007,05,18,12,25,15.00
2007,05,18,12,26,15.20
2007,05,18,12,27,15.20
2007,05,18,12,28,15.00
2007,05,18,12,29,15.00
2007,05,18,12,30,15.00
2007,05,18,12,31,14.90
2007,05,18,12,32,14.90
2007,05,18,12,33,14.80
2007,05,18,12,34,14.80
2007,05,18,12,35,14.80
2007,05,18,12,36,14.80
2007,05,18,12,37,14.90
2007,05,18,12,38,15.00
2007,05,18,12,39,15.00
2007,05,18,12,40,15.00
2007,05,18,12,41,15.00
2007,05,18,12,42,15.00
2007,05,18,12,43,15.00
2007,05,18,12,44,15.00
2007,05,18,12,45,15.00
2007,05,18,12,46,15.00
2007,05,18,12,47,15.00
2007,05,18,12,48,15.00
2007,05,18,12,49,15.00
2007,05,18,12,50,15.00
2007,05,18,12,51,15.00
2007,05,18,12,52,15.00
2007,05,18,12,53,15.00
2007,05,18,12,54,15.10
2007,05,18,12,55,15.30
2007,05,18,12,56,15.40
2007,05,18,12,57,15.50
2007,05,18,12,58,15.60
2007,05,18,12,59,15.70
2007,05,18,13,00,15.70
2007,05,18,13,01,15.70
2007,05,18,13,02,15.70
2007,05,18,13,03,15.70
2007,05,18,13,04,15.60
2007,05,18,13,05,15.60
2007,05,18,13,06,15.60
2007,05,18,13,07,15.50
2007,05,18,13,08,15.40
2007,05,18,13,09,15.50
2007,05,18,13,10,15.50
2007,05,18,13,11,15.60
2007,05,18,13,12,15.60
2007,05,18,13,13,15.70
2007,05,18,13,14,15.90
2007,05,18,13,15,15.90
2007,05,18,13,16,15.80
2007,05,18,13,17,15.70
2007,05,18,13,18,15.70
2007,05,18,13,19,15.70
2007,05,18,13,20,15.70
2007,05,18,13,21,15.70
2007,05,18,13,22,15.80
2007,05,18,13,23,15.80
2007,05,18,13,24,15.80
2007,05,18,13,25,15.80
2007,05,18,13,26,15.80
2007,05,18,13,27,15.80
2007,05,18,13,28,15.70
2007,05,18,13,29,15.70
2007,05,18,13,30,15.70
2007,05,18,13,31,15.70
2007,05,18,13,32,15.70
2007,05,18,13,33,15.80
2007,05,18,13,34,15.80
2007,05,18,13,35,15.80
2007,05,18,13,36,15.80
2007,05,18,13,37,15.90
2007,05,18,13,38,15.90
2007,05,18,13,39,15.80
2007,05,18,13,40,15.90
2007,05,18,13,41,15.90
2007,05,18,13,42,15.80
2007,05,18,13,43,15.80
2007,05,18,13,44,15.80
2007,05,18,13,45,15.80
2007,05,18,13,46,16.00
2007,05,18,13,47,16.10
2007,05,18,13,48,16.20
2007,05,18,13,49,16.10
2007,05,18,13,50,16.10
2007,05,18,13,51,16.20
2007,05,18,13,52,16.20
2007,05,18,13,53,16.30
2007,05,18,13,54,16.30
2007,05,18,13,55,16.40
2007,05,18,13,56,16.30
2007,05,18,13,57,16.40
2007,05,18,13,58,16.30
2007,05,18,13,59,16.30
2007,05,18,14,00,16.30
2007,05,18,14,01,16.30
2007,05,18,14,02,16.40
2007,05,18,14,03,16.40
2007,05,18,14,04,16.30
2007,05,18,14,05,16.30
2007,05,18,14,06,16.20
2007,05,18,14,07,16.10
2007,05,18,14,08,16.10
2007,05,18,14,09,16.20
2007,05,18,14,10,16.20
2007,05,18,14,11,16.20
2007,05,18,14,12,16.20
2007,05,18,14,13,16.20
2007,05,18,14,14,16.20
2007,05,18,14,15,16.30
2007,05,18,14,16,16.30
2007,05,18,14,17,16.30
2007,05,18,14,18,16.30
2007,05,18,14,19,16.40
2007,05,18,14,20,16.50
2007,05,18,14,21,16.50
2007,05,18,14,22,16.50
2007,05,18,14,23,16.60
2007,05,18,14,24,16.50
2007,05,18,14,25,16.60
2007,05,18,14,26,16.60
2007,05,18,14,27,16.60
2007,05,18,14,28,16.70
2007,05,18,14,29,16.70
2007,05,18,14,30,16.60
2007,05,18,14,31,16.70
2007,05,18,14,32,16.70
2007,05,18,14,33,16.80
2007,05,18,14,34,16.70
2007,05,18,14,35,16.60
2007,05,18,14,36,16.60
2007,05,18,14,37,16.70
2007,05,18,14,38,16.70
2007,05,18,14,39,16.70
2007,05,18,14,40,16.80
2007,05,18,14,41,16.80
2007,05,18,14,42,16.90
2007,05,18,14,43,17.00
2007,05,18,14,44,17.00
2007,05,18,14,45,17.00
2007,05,18,14,46,17.00
2007,05,18,14,47,17.00
2007,05,18,14,48,16.90
2007,05,18,14,49,16.90
2007,05,18,14,50,17.00
2007,05,18,14,51,17.10
2007,05,18,14,52,17.20
2007,05,18,14,53,17.30
2007,05,18,14,54,17.20
2007,05,18,14,55,17.30
2007,05,18,14,56,17.40
2007,05,18,14,57,17.50
2007,05,18,14,58,17.60
2007,05,18,14,59,17.70
2007,05,18,15,00,17.80
2007,05,18,15,01,17.90
2007,05,18,15,02,18.00
2007,05,18,15,03,18.00
2007,05,18,15,04,17.90
2007,05,18,15,05,17.80
2007,05,18,15,06,17.80
2007,05,18,15,07,17.80
2007,05,18,15,08,17.80
2007,05,18,15,09,17.80
2007,05,18,15,10,17.80
2007,05,18,15,11,17.80
2007,05,18,15,12,17.80
2007,05,18,15,13,17.80
2007,05,18,15,14,17.80
2007,05,18,15,15,17.80
2007,05,18,15,16,17.80
2007,05,18,15,17,17.70
2007,05,18,15,18,17.70
2007,05,18,15,19,17.60
2007,05,18,15,20,17.50
2007,05,18,15,21,17.40
2007,05,18,15,22,17.30
2007,05,18,15,23,17.30
2007,05,18,15,24,17.30
2007,05,18,15,25,17.40
2007,05,18,15,26,17.50
2007,05,18,15,27,17.50
2007,05,18,15,28,17.40
2007,05,18,15,29,17.40
2007,05,18,15,30,17.50
2007,05,18,15,31,17.50
2007,05,18,15,32,17.60
2007,05,18,15,33,17.60
2007,05,18,15,34,17.50
2007,05,18,15,35,17.50
2007,05,18,15,36,17.60
2007,05,18,15,37,17.70
2007,05,18,15,38,17.70
2007,05,18,15,39,17.60
2007,05,18,15,40,17.60
2007,05,18,15,41,17.50
2007,05,18,15,42,17.40
2007,05,18,15,43,17.40
2007,05,18,15,44,17.40
2007,05,18,15,45,17.40
2007,05,18,15,46,17.50
2007,05,18,15,47,17.40
2007,05,18,15,48,17.40
2007,05,18,15,49,17.40
2007,05,18,15,50,17.30
2007,05,18,15,51,17.20
2007,05,18,15,52,17.10
2007,05,18,15,53,17.00
2007,05,18,15,54,17.00
2007,05,18,15,55,16.90
2007,05,18,15,56,16.90
2007,05,18,15,57,16.90
2007,05,18,15,58,16.90
2007,05,18,15,59,16.90
2007,05,18,16,00,16.90
2007,05,18,16,01,16.90
2007,05,18,16,02,16.90
2007,05,18,16,03,16.90
2007,05,18,16,04,17.00
2007,05,18,16,05,17.00
2007,05,18,16,06,17.10
2007,05,18,16,07,17.10
2007,05,18,16,08,17.10
2007,05,18,16,09,17.10
2007,05,18,16,10,17.00
2007,05,18,16,11,17.00
2007,05,18,16,12,16.80
2007,05,18,16,13,16.70
2007,05,18,16,14,16.60
2007,05,18,16,15,16.50
2007,05,18,16,16,16.30
2007,05,18,16,17,16.20
2007,05,18,16,18,16.00
2007,05,18,16,19,15.90
2007,05,18,16,20,15.80
2007,05,18,16,21,15.70
2007,05,18,16,22,15.50
2007,05,18,16,23,15.30
2007,05,18,16,24,15.20
2007,05,18,16,25,15.00
2007,05,18,16,26,15.00
2007,05,18,16,27,15.00
2007,05,18,16,28,15.00
2007,05,18,16,29,15.00
2007,05,18,16,30,15.00
2007,05,18,16,31,15.00
2007,05,18,16,32,15.00
2007,05,18,16,33,14.90
2007,05,18,16,34,14.90
2007,05,18,16,35,15.00
2007,05,18,16,36,15.00
2007,05,18,16,37,15.00
2007,05,18,16,38,15.00
2007,05,18,16,39,15.00
2007,05,18,16,40,15.00
2007,05,18,16,41,15.00
2007,05,18,16,42,15.00
2007,05,18,16,43,15.00
2007,05,18,16,44,15.00
2007,05,18,16,45,15.10
2007,05,18,16,46,15.20
2007,05,18,16,47,15.20
2007,05,18,16,48,15.30
2007,05,18,16,49,15.30
2007,05,18,16,50,15.30
2007,05,18,16,51,15.30
2007,05,18,16,52,15.30
2007,05,18,16,53,15.20
2007,05,18,16,54,15.20
2007,05,18,16,55,15.20
2007,05,18,16,56,15.20
2007,05,18,16,57,15.20
2007,05,18,16,58,15.10
2007,05,18,16,59,15.10
2007,05,18,17,00,15.20
2007,05,18,17,01,15.10
2007,05,18,17,02,15.20
2007,05,18,17,03,15.20
2007,05,18,17,04,15.30
2007,05,18,17,05,15.30
2007,05,18,17,06,15.30
2007,05,18,17,07,15.30
2007,05,18,17,08,15.30
2007,05,18,17,09,15.40
2007,05,18,17,10,15.40
2007,05,18,17,11,15.40
2007,05,18,17,12,15.40
2007,05,18,17,13,15.40
2007,05,18,17,14,15.50
2007,05,18,17,15,15.50
2007,05,18,17,16,15.60
2007,05,18,17,17,15.60
2007,05,18,17,18,15.60
2007,05,18,17,19,15.60
2007,05,18,17,20,15.60
2007,05,18,17,21,15.60
2007,05,18,17,22,15.50
2007,05,18,17,23,15.50
2007,05,18,17,24,15.40
2007,05,18,17,25,15.40
2007,05,18,17,26,15.40
2007,05,18,17,27,15.40
2007,05,18,17,28,15.30
2007,05,18,17,29,15.30
2007,05,18,17,30,15.30
2007,05,18,17,31,15.30
2007,05,18,17,32,15.30
2007,05,18,17,33,15.30
2007,05,18,17,34,15.20
2007,05,18,17,35,15.20
2007,05,18,17,36,15.20
2007,05,18,17,37,15.10
2007,05,18,17,38,15.10
2007,05,18,17,39,15.00